TimeEDT,TemperatureF,Dew PointF,Humidity,Sea Level PressureIn,VisibilityMPH,Wind Direction,Wind SpeedMPH,Gust SpeedMPH,PrecipitationIn,Events,Conditions,WindDirDegrees,DateUTC
12:53 AM,57.0,53.1,87,30.07,10.0,South,4.6,-,N/A,,Clear,190,2012-10-04 04:53:00
1:53 AM,57.0,53.1,87,30.08,9.0,SSW,5.8,-,N/A,,Mostly Cloudy,200,2012-10-04 05:53:00
2:53 AM,55.0,52.0,89,30.07,6.0,SSW,4.6,-,N/A,,Clear,210,2012-10-04 06:53:00
3:53 AM,54.0,51.1,90,30.06,5.0,SSW,5.8,-,N/A,,Clear,210,2012-10-04 07:53:00
4:53 AM,53.1,50.0,89,30.07,6.0,SSW,3.5,-,N/A,,Clear,210,2012-10-04 08:53:00
5:53 AM,55.0,50.0,83,30.07,10.0,SW,5.8,-,N/A,,Scattered Clouds,230,2012-10-04 09:53:00
6:53 AM,52.0,48.0,86,30.08,10.0,SW,4.6,-,N/A,,Clear,220,2012-10-04 10:53:00
7:53 AM,53.1,48.9,86,30.09,9.0,SW,5.8,-,N/A,,Clear,220,2012-10-04 11:53:00
8:53 AM,55.9,51.1,84,30.08,10.0,SW,6.9,-,N/A,,Clear,230,2012-10-04 12:53:00
9:53 AM,60.1,52.0,75,30.09,10.0,SW,8.1,-,N/A,,Clear,220,2012-10-04 13:53:00
10:53 AM,64.9,53.1,65,30.10,10.0,WSW,12.7,-,N/A,,Overcast,250,2012-10-04 14:53:00
11:53 AM,68.0,53.1,59,30.10,10.0,WSW,10.4,-,N/A,,Mostly Cloudy,250,2012-10-04 15:53:00
12:53 PM,70.0,51.1,51,30.09,10.0,SW,11.5,-,N/A,,Overcast,230,2012-10-04 16:53:00
1:53 PM,73.9,51.1,45,30.06,10.0,SW,13.8,23.0,N/A,,Clear,220,2012-10-04 17:53:00
2:53 PM,75.9,50.0,40,30.04,10.0,WSW,17.3,-,N/A,,Clear,240,2012-10-04 18:53:00
3:53 PM,75.9,50.0,40,30.04,10.0,SW,13.8,20.7,N/A,,Partly Cloudy,230,2012-10-04 19:53:00
4:53 PM,75.0,50.0,41,30.04,10.0,WSW,17.3,24.2,N/A,,Partly Cloudy,240,2012-10-04 20:53:00
5:53 PM,75.0,48.9,40,30.03,10.0,SW,11.5,21.9,N/A,,Partly Cloudy,230,2012-10-04 21:53:00
6:53 PM,71.1,50.0,47,30.03,10.0,SW,8.1,-,N/A,,Clear,220,2012-10-04 22:53:00
7:53 PM,66.0,50.0,56,30.02,10.0,South,4.6,-,N/A,,Clear,190,2012-10-04 23:53:00
8:53 PM,66.0,50.0,56,30.01,10.0,SSW,6.9,-,N/A,,Clear,200,2012-10-05 00:53:00
9:53 PM,64.9,51.1,61,30.01,10.0,SSW,6.9,-,N/A,,Partly Cloudy,200,2012-10-05 01:53:00
10:53 PM,66.0,52.0,60,30.02,10.0,WSW,8.1,-,N/A,,Overcast,250,2012-10-05 02:53:00
11:53 PM,63.0,57.9,84,30.02,10.0,West,8.1,-,0.02,Rain,Light Rain,270,2012-10-05 03:53:00